[[{"header":{"parameterUnit":"m.s-1","parameterCategory":1,"la1":30.2991,"la2":30.254,"lo1":-89.0895,"lo2":-89.0444,"dy":0.0017,"dx":0.0017,"nx":28,"ny":28,"refTime":"2025-09-03T21:00:00:Z","depth":0,"parameterNumber":2,"parameterNumberName":"U-component_of_WINDS"},"data":[0,0,0,0,0,0,0,0,0,0,0,0,0,0,0,0,0,0,0,0,0,0,0,0,0,0,0,0,0,0,0,0,0,0,0,0,0,0,0,0,0,0,0,0,0,0,0,0,0,0,0,0,0,0,0,0,0,0,-1.5777,-1.5777,0,-1.5786,-1.5786,-1.5787,-1.5746,-1.5745,-1.5744,-1.5743,-1.5753,-1.5754,-1.5756,0,0,0,0,0,0,0,0,0,0,0,0,0,-1.5726,-1.5727,-1.5777,-1.5777,-1.5777,-1.5786,-1.5786,-1.5787,-1.5746,-1.5745,-1.5744,-1.5742,-1.5753,-1.5754,-1.5756,0,0,0,0,0,0,0,0,0,0,0,0,0,-1.5743,-1.5727,-1.5777,-1.5758,-1.5757,-1.5786,-1.5786,-1.5787,-1.5747,-1.5745,-1.5743,-1.5742,-1.5752,-1.5754,-1.5756,-1.5804,0,0,-1.5762,-1.5763,0,0,0,0,0,0,0,0,-1.5742,-1.5745,-1.5761,-1.576,-1.5758,-1.5763,-1.5772,-1.5793,-1.5747,-1.5751,-1.5743,-1.5741,-1.5758,-1.5759,-1.5765,-1.5805,-1.5805,-1.5763,-1.5764,-1.5765,-1.5765,0,0,0,0,0,0,0,-1.5741,-1.5744,-1.5781,-1.5761,-1.5759,-1.575,-1.575,-1.5776,-1.5764,-1.575,-1.5747,-1.5749,-1.5757,-1.5763,-1.5765,-1.5805,-1.5763,-1.5764,-1.5766,-1.5766,-1.5887,-1.5889,0,0,0,0,0,0,-1.5742,-1.5743,-1.578,-1.5781,-1.5745,-1.5752,-1.5753,-1.5763,-1.5764,-1.5762,-1.575,-1.5747,-1.5761,-1.5763,-1.5765,-1.5823,-1.5765,-1.5767,-1.5768,-1.5885,-1.5887,-1.5889,0,0,0,0,0,0,-1.5741,-1.5746,-1.578,-1.5761,-1.5765,-1.5755,-1.5767,-1.5765,-1.5771,-1.5764,-1.5762,-1.5759,-1.5759,-1.5762,-1.5795,-1.5823,-1.5768,-1.5769,-1.5883,-1.5886,-1.5888,-1.5938,0,0,0,0,0,0,-1.574,-1.5746,-1.5763,-1.5762,-1.5766,-1.581,-1.5769,-1.5766,-1.5774,-1.577,-1.5771,-1.577,-1.5758,-1.5792,-1.5797,-1.5824,-1.5771,-1.588,-1.5884,-1.5887,-1.5934,-1.5942,-1.5949,0,0,0,0,0,-1.5738,-1.5777,-1.5764,-1.5769,-1.5788,-1.5811,-1.5814,-1.5799,-1.5777,-1.5795,-1.5791,-1.577,-1.5819,-1.5796,-1.5801,-1.5829,-1.5878,-1.5883,-1.5887,-1.593,-1.594,-1.5949,0,0,0,0,0,0,-1.5781,-1.5776,-1.5763,-1.5802,-1.5807,-1.5804,-1.5827,-1.581,-1.5822,-1.5817,-1.5799,-1.58,-1.5836,-1.5836,-1.5811,-1.5877,-1.5845,-1.585,-1.5876,-1.5885,-1.5893,-1.5892,-1.5773,0,0,0,0,0,-1.5795,-1.5814,-1.5809,-1.5844,-1.5847,-1.5837,-1.5846,-1.5835,-1.5839,-1.5842,-1.584,-1.5846,-1.5862,-1.5874,-1.5889,-1.5933,-1.5934,-1.5955,-1.5963,-1.597,-1.5975,-1.6,-1.601,-1.5904,-1.5904,-1.5904,0,0,-1.5825,-1.5824,-1.5837,-1.5853,-1.5855,-1.5876,-1.5839,-1.5862,-1.5877,-1.5845,-1.5876,-1.5875,-1.5881,-1.592,-1.5937,-1.5921,-1.6004,-1.5975,-1.598,-1.5982,-1.6006,-1.6016,-1.6025,-1.5907,-1.5906,-1.5906,0,0,-1.5889,-1.589,-1.592,-1.5924,-1.5929,-1.5921,-1.5929,-1.5929,-1.5927,-1.5958,-1.5935,-1.5953,-1.5982,-1.5987,-1.5993,-1.6061,-1.6043,-1.6066,-1.6107,-1.6132,-1.614,-1.6148,-1.6173,-1.6182,-1.6072,-1.6072,-1.6072,0,-1.5925,-1.5954,-1.5938,-1.5962,-1.597,-1.5943,-1.5974,-1.5978,-1.5988,-1.5994,-1.5976,-1.6013,-1.6014,-1.6055,-1.6072,-1.6078,-1.6086,-1.6066,-1.614,-1.6148,-1.6154,-1.6178,-1.6188,-1.6075,-1.6074,-1.6074,-1.6074,0,-1.5999,-1.6019,-1.6043,-1.6054,-1.6064,-1.6092,-1.608,-1.6093,-1.6081,-1.6076,-1.6109,-1.611,-1.6125,-1.6134,-1.6122,-1.6174,-1.6164,-1.6143,-1.6111,-1.6167,-1.619,-1.6199,-1.6079,-1.6078,-1.6077,-1.6076,0,0,-1.609,-1.6091,-1.61,-1.6105,-1.6109,-1.6125,-1.6152,-1.6167,-1.6179,-1.6187,-1.621,-1.6236,-1.6217,-1.6225,-1.6213,-1.6235,-1.629,-1.6212,-1.6211,-1.6227,-1.6349,-1.6365,-1.6376,-1.6278,-1.6279,-1.6281,-1.6349,0,-1.6153,-1.6199,-1.6186,-1.6232,-1.6252,-1.6227,-1.625,-1.6256,-1.6252,-1.6269,-1.6265,-1.6284,-1.6257,-1.6262,-1.6282,-1.6279,-1.6314,-1.6274,-1.63,-1.6301,-1.63,-1.6387,-1.6404,-1.6468,-1.6357,-1.6358,-1.6359,0,-1.6233,-1.6245,-1.6293,-1.6295,-1.6303,-1.6324,-1.6338,-1.6354,-1.636,-1.6356,-1.6365,-1.635,-1.6377,-1.6345,-1.6383,-1.6356,-1.6366,-1.6366,-1.6368,-1.6371,-1.6334,-1.6393,-1.6487,-1.6497,-1.6373,-1.6372,-1.6371,0,-1.6296,-1.6324,-1.6357,-1.6361,-1.6364,-1.638,-1.6382,-1.6386,-1.6397,-1.6409,-1.6415,-1.643,-1.6439,-1.6451,-1.6441,-1.6418,-1.6482,-1.6447,-1.648,-1.648,-1.6495,-1.6494,-1.6594,-1.65,-1.65,-1.65,-1.65,0,-1.6369,-1.64,-1.6385,-1.6405,-1.644,-1.6424,-1.6459,-1.6458,-1.6462,-1.6483,-1.6462,-1.6481,-1.6466,-1.6485,-1.6477,-1.6511,-1.6514,-1.6513,-1.651,-1.6515,-1.6515,-1.6522,-1.6517,-1.6502,-1.6502,-1.6501,-1.6501,0,-1.6445,-1.6436,-1.647,-1.6471,-1.6471,-1.6497,-1.6497,-1.6516,-1.6512,-1.6538,-1.6543,-1.6536,-1.6557,-1.6548,-1.657,-1.6564,-1.6608,-1.66,-1.6606,-1.6604,-1.6638,-1.6635,-1.6745,-1.676,-1.6656,-1.6657,-1.6658,0,-1.6492,-1.6515,-1.6518,-1.653,-1.6534,-1.6554,-1.6564,-1.655,-1.6563,-1.6572,-1.6591,-1.661,-1.6625,-1.666,-1.6657,-1.6674,-1.6666,-1.6704,-1.6669,-1.6673,-1.6668,-1.6667,-1.667,-1.6711,-1.6712,-1.6713,-1.6714,0,-1.6577,-1.6572,-1.6588,-1.6603,-1.6617,-1.6628,-1.6637,-1.6649,-1.6635,-1.665,-1.6672,-1.6683,-1.6706,-1.6726,-1.6741,-1.6744,-1.6728,-1.6725,-1.6733,-1.6739,-1.6742,-1.6742,-1.6626,-1.6722,-1.6721,-1.6721,-1.672,-1.672,-1.6641,-1.6661,-1.6667,-1.6686,-1.6692,-1.6701,-1.672,-1.6718,-1.6735,-1.6753,-1.6743,-1.6769,-1.6776,-1.6795,-1.68,-1.682,-1.6805,-1.6818,-1.6821,-1.6824,-1.6829,-1.6739,-1.6823,-1.6822,-1.6822,-1.6822,-1.6822,0,-1.6726,-1.6729,-1.6746,-1.6761,-1.6776,-1.6759,-1.6769,-1.6783,-1.6805,-1.6813,-1.6828,-1.6853,-1.6873,-1.6872,-1.689,-1.6907,-1.69,-1.6912,-1.6911,-1.6912,-1.6841,-1.6832,-1.6918,-1.6918,-1.6918,-1.6918,-1.6918,-1.6918,-1.6772,-1.6806,-1.6801,-1.6838,-1.684,-1.6865,-1.6872,-1.6882,-1.6888,-1.6917,-1.6933,-1.6932,-1.6937,-1.6956,-1.6974,-1.6973,-1.6981,-1.6997,-1.6993,-1.6927,-1.6917,-1.6908,-1.69,-1.6998,-1.6998,-1.7063,-1.7064,-1.7064]},{"header":{"parameterUnit":"m.s-1","parameterCategory":1,"la1":30.2991,"la2":30.254,"lo1":-89.0895,"lo2":-89.0444,"dy":0.0017,"dx":0.0017,"nx":28,"ny":28,"refTime":"2025-09-03T21:00:00:Z","depth":0,"parameterNumber":3,"parameterNumberName":"V-component_of_WINDS"},"data":[0,0,0,0,0,0,0,0,0,0,0,0,0,0,0,0,0,0,0,0,0,0,0,0,0,0,0,0,0,0,0,0,0,0,0,0,0,0,0,0,0,0,0,0,0,0,0,0,0,0,0,0,0,0,0,0,0,0,1.0951,1.0951,0,1.0969,1.0969,1.0969,1.1012,1.1013,1.1014,1.1015,1.1031,1.1031,1.103,0,0,0,0,0,0,0,0,0,0,0,0,0,1.0951,1.095,1.0951,1.0951,1.0951,1.0969,1.0969,1.0969,1.1012,1.1013,1.1014,1.1015,1.1031,1.1031,1.103,0,0,0,0,0,0,0,0,0,0,0,0,0,1.0958,1.095,1.0951,1.0975,1.0977,1.0969,1.0969,1.0969,1.1012,1.1013,1.1014,1.1016,1.1032,1.1031,1.103,1.0999,0,0,1.1028,1.1028,0,0,0,0,0,0,0,0,1.0957,1.0958,1.0971,1.0973,1.0976,1.099,1.0975,1.0979,1.1011,1.0998,1.1015,1.1016,1.1016,1.1017,1.1017,1.1,1.1001,1.1028,1.1028,1.1028,1.1028,0,0,0,0,0,0,0,1.0957,1.0957,1.0958,1.0971,1.0974,1.0984,1.0986,1.0976,1.0999,1.1,1.1003,1.1005,1.1018,1.1018,1.1018,1.1001,1.1028,1.1028,1.1028,1.1027,1.0957,1.0955,0,0,0,0,0,0,1.0953,1.0957,1.0957,1.0958,1.097,1.0983,1.0985,1.0984,1.1,1.1003,1.1003,1.1006,1.1018,1.1019,1.1019,1.0981,1.1028,1.1027,1.1027,1.0958,1.0956,1.0955,0,0,0,0,0,0,1.0953,1.0953,1.0956,1.0958,1.096,1.0981,1.0979,1.0983,1.0983,1.1002,1.1007,1.0999,1.1019,1.102,1.1003,1.0982,1.1027,1.1026,1.096,1.0958,1.0956,1.0907,0,0,0,0,0,0,1.0953,1.0953,1.0942,1.0958,1.0959,1.0941,1.0978,1.0983,1.0982,1.0987,1.1,1.1003,1.102,1.1004,1.1003,1.0982,1.1026,1.0962,1.0959,1.0956,1.0911,1.0903,1.0897,0,0,0,0,0,1.0953,1.0927,1.0941,1.0941,1.0946,1.094,1.0941,1.0962,1.0981,1.0969,1.0981,1.1003,1.0985,1.1002,1.1001,1.098,1.0963,1.096,1.0957,1.0914,1.0905,1.0897,0,0,0,0,0,0,1.0908,1.093,1.0945,1.0925,1.093,1.0948,1.0934,1.0952,1.0952,1.0956,1.0982,1.0984,1.0964,1.0971,1.0989,1.095,1.0978,1.0974,1.0945,1.0937,1.0931,1.0928,1.1025,0,0,0,0,0,1.0896,1.089,1.091,1.0889,1.0891,1.0912,1.091,1.0926,1.0932,1.0935,1.0946,1.0951,1.0946,1.0943,1.094,1.0913,1.0914,1.0898,1.0891,1.0885,1.0881,1.0864,1.0856,1.0944,1.0944,1.0944,0,0,1.0871,1.0882,1.0877,1.0881,1.0887,1.0878,1.0914,1.0904,1.0898,1.0933,1.0918,1.0926,1.0933,1.0911,1.0901,1.0916,1.0857,1.0881,1.0876,1.0875,1.086,1.0851,1.0844,1.0941,1.0942,1.0942,0,0,1.082,1.0829,1.0812,1.0817,1.0826,1.084,1.0835,1.085,1.0856,1.0842,1.0867,1.086,1.0853,1.0856,1.0856,1.0805,1.0824,1.0804,1.0768,1.0751,1.0744,1.0738,1.0717,1.0709,1.08,1.08,1.08,0,1.0786,1.0776,1.08,1.0788,1.0788,1.0821,1.0802,1.0806,1.0814,1.0812,1.0829,1.0818,1.0826,1.0803,1.079,1.0791,1.0785,1.0801,1.0744,1.0738,1.0732,1.0712,1.0705,1.0797,1.0797,1.0798,1.0798,0,1.0733,1.0726,1.0711,1.0716,1.0715,1.07,1.0721,1.0717,1.0732,1.0744,1.0727,1.0737,1.0735,1.0732,1.0747,1.071,1.0719,1.0739,1.0767,1.0721,1.0702,1.0695,1.0793,1.0794,1.0795,1.0796,0,0,1.0654,1.0673,1.0666,1.0668,1.068,1.0674,1.066,1.0659,1.0653,1.0657,1.0644,1.0637,1.0655,1.0656,1.0672,1.0658,1.0613,1.068,1.068,1.0664,1.0569,1.0552,1.0543,1.0627,1.0625,1.0624,1.0568,0,1.0603,1.058,1.0601,1.0573,1.0565,1.0595,1.0583,1.0588,1.0598,1.0592,1.0603,1.0596,1.0623,1.0623,1.061,1.0621,1.0594,1.0626,1.0612,1.0611,1.0606,1.0534,1.0515,1.0461,1.0561,1.056,1.0559,0,1.0541,1.0541,1.0513,1.0524,1.0522,1.051,1.0509,1.0504,1.051,1.0518,1.0518,1.0538,1.0523,1.0552,1.0531,1.0552,1.0549,1.0553,1.0551,1.0548,1.058,1.0525,1.0445,1.0436,1.0549,1.0549,1.055,0,1.0482,1.0475,1.0457,1.0458,1.0472,1.0463,1.0468,1.0475,1.0472,1.0472,1.047,1.0468,1.0466,1.0463,1.0481,1.0501,1.0456,1.0488,1.0461,1.046,1.0447,1.0447,1.0362,1.045,1.045,1.045,1.045,0,1.0421,1.0402,1.043,1.0418,1.0396,1.0421,1.0398,1.0407,1.0413,1.0402,1.0429,1.0418,1.0444,1.0435,1.0449,1.0427,1.0427,1.0432,1.0435,1.0428,1.0427,1.0423,1.0426,1.0448,1.0449,1.0449,1.0449,0,1.035,1.0369,1.035,1.0365,1.0368,1.0351,1.0363,1.0352,1.0364,1.035,1.0348,1.0367,1.0358,1.0376,1.037,1.0379,1.0348,1.0359,1.0345,1.0347,1.0317,1.0318,1.0224,1.0212,1.0311,1.031,1.0309,0,1.0309,1.0294,1.0307,1.0302,1.0306,1.0297,1.0294,1.0318,1.0313,1.0318,1.0305,1.0299,1.0295,1.0279,1.0291,1.0286,1.0295,1.0262,1.0294,1.0286,1.029,1.0289,1.0286,1.0254,1.0253,1.0252,1.0251,0,1.0232,1.0242,1.0237,1.0234,1.023,1.0229,1.0231,1.0225,1.0249,1.0243,1.0234,1.023,1.0223,1.0215,1.0213,1.0217,1.0237,1.0242,1.0234,1.0225,1.0216,1.0217,1.0324,1.0243,1.0244,1.0244,1.0245,1.0245,1.0173,1.016,1.0167,1.016,1.0163,1.0163,1.0152,1.0163,1.0156,1.0152,1.0167,1.0154,1.0158,1.0157,1.0159,1.0149,1.0163,1.0153,1.015,1.0147,1.014,1.022,1.0149,1.0149,1.0149,1.015,1.015,0,1.0095,1.01,1.0094,1.0094,1.0088,1.0109,1.0111,1.0103,1.0092,1.0095,1.009,1.0078,1.0071,1.0082,1.0076,1.0065,1.0074,1.0062,1.0062,1.0062,1.0129,1.0135,1.0055,1.0055,1.0055,1.0055,1.0055,1.0055,1.0053,1.0032,1.0042,1.0022,1.0028,1.0016,1.0014,1.0014,1.0016,1.0002,0.9996,1.0004,1.0009,1.0004,0.9997,1.0,0.9995,0.998,0.9986,1.0048,1.0057,1.0066,1.0071,0.9979,0.9979,0.9919,0.9918,0.9917]}]]